[[{"header":{"parameterUnit":"m.s-1","parameterCategory":1,"la1":30.2991,"la2":30.254,"lo1":-89.0895,"lo2":-89.0444,"dy":0.0017,"dx":0.0017,"nx":28,"ny":28,"refTime":"2025-08-31T09:00:00:Z","depth":0,"parameterNumber":2,"parameterNumberName":"U-component_of_WINDS"},"data":[0,0,0,0,0,0,0,0,0,0,0,0,0,0,0,0,0,0,0,0,0,0,0,0,0,0,0,0,0,0,0,0,0,0,0,0,0,0,0,0,0,0,0,0,0,0,0,0,0,0,0,0,0,0,0,0,0,0,-1.4485,-1.4484,0,-1.4462,-1.4462,-1.4462,-1.4415,-1.4414,-1.4414,-1.4413,-1.4392,-1.4392,-1.4393,0,0,0,0,0,0,0,0,0,0,0,0,0,-1.4489,-1.4489,-1.4485,-1.4484,-1.4484,-1.4462,-1.4462,-1.4462,-1.4416,-1.4414,-1.4413,-1.4412,-1.4392,-1.4392,-1.4393,0,0,0,0,0,0,0,0,0,0,0,0,0,-1.4479,-1.4489,-1.4485,-1.4458,-1.4456,-1.4463,-1.4462,-1.4462,-1.4416,-1.4414,-1.4413,-1.4412,-1.4392,-1.4392,-1.4393,-1.4424,0,0,-1.4394,-1.4394,0,0,0,0,0,0,0,0,-1.448,-1.4479,-1.4463,-1.446,-1.4457,-1.444,-1.4456,-1.4449,-1.4416,-1.4431,-1.4413,-1.4411,-1.4409,-1.4408,-1.4407,-1.4423,-1.4422,-1.4394,-1.4395,-1.4395,-1.4395,0,0,0,0,0,0,0,-1.448,-1.448,-1.4476,-1.4462,-1.4459,-1.4448,-1.4445,-1.4455,-1.4429,-1.443,-1.4426,-1.4424,-1.4408,-1.4407,-1.4406,-1.4422,-1.4394,-1.4395,-1.4395,-1.4395,-1.4463,-1.4464,0,0,0,0,0,0,-1.4485,-1.448,-1.4477,-1.4475,-1.4465,-1.4449,-1.4446,-1.4447,-1.4428,-1.4424,-1.4425,-1.4422,-1.4407,-1.4406,-1.4406,-1.4442,-1.4395,-1.4395,-1.4396,-1.4462,-1.4463,-1.4465,0,0,0,0,0,0,-1.4485,-1.4485,-1.4478,-1.4477,-1.4475,-1.4451,-1.4452,-1.4448,-1.4447,-1.4425,-1.442,-1.4429,-1.4406,-1.4405,-1.442,-1.4441,-1.4396,-1.4396,-1.446,-1.4462,-1.4464,-1.4515,0,0,0,0,0,0,-1.4485,-1.4485,-1.4496,-1.4477,-1.4475,-1.4492,-1.4454,-1.4448,-1.4447,-1.4443,-1.4427,-1.4424,-1.4404,-1.4419,-1.442,-1.4441,-1.4396,-1.4458,-1.4461,-1.4463,-1.4512,-1.4519,-1.4525,0,0,0,0,0,-1.4485,-1.4512,-1.4497,-1.4497,-1.4489,-1.4493,-1.4492,-1.4469,-1.4449,-1.4461,-1.4447,-1.4424,-1.4438,-1.4421,-1.4422,-1.4443,-1.4456,-1.446,-1.4463,-1.4509,-1.4518,-1.4525,0,0,0,0,0,0,-1.4535,-1.4509,-1.4493,-1.4514,-1.4506,-1.4485,-1.45,-1.4479,-1.4478,-1.4474,-1.4445,-1.4442,-1.4461,-1.4453,-1.4435,-1.4472,-1.4443,-1.4447,-1.4478,-1.4486,-1.4493,-1.4496,-1.4397,0,0,0,0,0,-1.4548,-1.4553,-1.453,-1.4551,-1.4548,-1.4524,-1.4525,-1.4508,-1.4499,-1.4496,-1.4483,-1.4476,-1.4479,-1.4481,-1.4483,-1.4509,-1.4506,-1.4524,-1.4531,-1.4536,-1.4541,-1.4555,-1.4564,-1.4476,-1.4476,-1.4476,0,0,-1.4576,-1.4562,-1.4568,-1.4561,-1.4553,-1.456,-1.4522,-1.4531,-1.4536,-1.4498,-1.4512,-1.4501,-1.4492,-1.4513,-1.4522,-1.4507,-1.4564,-1.4541,-1.4545,-1.4547,-1.456,-1.4568,-1.4576,-1.4478,-1.4478,-1.4478,0,0,-1.4631,-1.462,-1.4637,-1.4629,-1.4617,-1.4601,-1.4605,-1.4588,-1.4579,-1.4592,-1.4564,-1.4569,-1.4574,-1.4569,-1.4567,-1.4618,-1.4598,-1.4619,-1.4656,-1.4671,-1.4678,-1.4684,-1.4704,-1.4712,-1.4623,-1.4623,-1.4623,0,-1.4668,-1.4676,-1.4648,-1.4659,-1.4657,-1.4621,-1.4639,-1.4633,-1.4622,-1.4623,-1.4605,-1.4611,-1.4602,-1.4622,-1.4634,-1.4633,-1.4638,-1.4623,-1.4679,-1.4685,-1.469,-1.4709,-1.4717,-1.4626,-1.4626,-1.4626,-1.4625,0,-1.4722,-1.4728,-1.4743,-1.4734,-1.4733,-1.4747,-1.4722,-1.4725,-1.4707,-1.4693,-1.4707,-1.4695,-1.4693,-1.4696,-1.4679,-1.4714,-1.4705,-1.4684,-1.4655,-1.4702,-1.4719,-1.4726,-1.463,-1.4629,-1.4628,-1.4628,0,0,-1.4811,-1.4784,-1.479,-1.4786,-1.4769,-1.4774,-1.4786,-1.4783,-1.4787,-1.478,-1.4791,-1.4796,-1.4776,-1.4773,-1.4755,-1.4767,-1.4811,-1.4744,-1.4744,-1.4759,-1.4851,-1.487,-1.4879,-1.4796,-1.4797,-1.4798,-1.4853,0,-1.4864,-1.4883,-1.4858,-1.4883,-1.4889,-1.4854,-1.4865,-1.4857,-1.4843,-1.4847,-1.4832,-1.4837,-1.4809,-1.4807,-1.4818,-1.4804,-1.483,-1.4799,-1.4808,-1.4809,-1.4814,-1.4887,-1.4907,-1.4959,-1.4859,-1.486,-1.4861,0,-1.4929,-1.4925,-1.4951,-1.4932,-1.4934,-1.4944,-1.494,-1.4943,-1.4933,-1.4922,-1.4919,-1.4897,-1.4908,-1.4878,-1.4894,-1.4874,-1.4875,-1.4869,-1.487,-1.4873,-1.484,-1.4894,-1.4975,-1.4984,-1.4871,-1.4871,-1.487,0,-1.4994,-1.4994,-1.501,-1.5007,-1.4985,-1.4993,-1.4985,-1.4973,-1.4973,-1.4969,-1.497,-1.4967,-1.4967,-1.4966,-1.4944,-1.4924,-1.4964,-1.4931,-1.4957,-1.4958,-1.497,-1.497,-1.5055,-1.4966,-1.4966,-1.4966,-1.4966,0,-1.5057,-1.5075,-1.5039,-1.5049,-1.5068,-1.5038,-1.5058,-1.5046,-1.5035,-1.5043,-1.5012,-1.502,-1.4989,-1.4994,-1.4976,-1.4994,-1.4993,-1.4986,-1.4982,-1.4991,-1.4992,-1.4994,-1.4991,-1.4968,-1.4968,-1.4967,-1.4967,0,-1.5135,-1.5111,-1.5126,-1.5104,-1.5098,-1.5114,-1.5095,-1.5104,-1.5087,-1.5098,-1.5098,-1.5074,-1.5078,-1.5054,-1.5054,-1.5043,-1.507,-1.5058,-1.5074,-1.5071,-1.5099,-1.5098,-1.5191,-1.5202,-1.5104,-1.5105,-1.5105,0,-1.5179,-1.5191,-1.517,-1.5173,-1.5166,-1.517,-1.517,-1.5141,-1.5142,-1.513,-1.5141,-1.5142,-1.5142,-1.515,-1.5133,-1.5133,-1.5123,-1.5155,-1.5123,-1.5131,-1.5126,-1.5127,-1.5129,-1.5163,-1.5164,-1.5165,-1.5166,0,-1.526,-1.5247,-1.5248,-1.5244,-1.5244,-1.524,-1.5234,-1.5238,-1.5207,-1.521,-1.5213,-1.5213,-1.5212,-1.5215,-1.5211,-1.5203,-1.518,-1.5175,-1.5182,-1.5193,-1.5203,-1.52,-1.5095,-1.5174,-1.5173,-1.5173,-1.5172,-1.5172,-1.5323,-1.5334,-1.532,-1.5322,-1.5314,-1.5309,-1.5316,-1.53,-1.5302,-1.53,-1.5282,-1.5289,-1.5278,-1.527,-1.5264,-1.527,-1.5255,-1.5264,-1.5266,-1.527,-1.5276,-1.5199,-1.5269,-1.5268,-1.5268,-1.5268,-1.5268,0,-1.5406,-1.5395,-1.5396,-1.5389,-1.539,-1.5365,-1.5357,-1.5361,-1.5367,-1.5358,-1.5358,-1.5362,-1.5364,-1.5346,-1.5346,-1.5354,-1.5343,-1.5355,-1.5356,-1.5355,-1.5288,-1.5284,-1.5364,-1.5364,-1.5364,-1.5364,-1.5364,-1.5364,-1.5449,-1.5465,-1.545,-1.5462,-1.5451,-1.5458,-1.5455,-1.5451,-1.5443,-1.5449,-1.545,-1.5438,-1.5426,-1.5424,-1.5425,-1.5419,-1.5422,-1.5438,-1.5429,-1.5368,-1.5359,-1.5351,-1.5346,-1.5438,-1.5438,-1.5496,-1.5496,-1.5497]},{"header":{"parameterUnit":"m.s-1","parameterCategory":1,"la1":30.2991,"la2":30.254,"lo1":-89.0895,"lo2":-89.0444,"dy":0.0017,"dx":0.0017,"nx":28,"ny":28,"refTime":"2025-08-31T09:00:00:Z","depth":0,"parameterNumber":3,"parameterNumberName":"V-component_of_WINDS"},"data":[0,0,0,0,0,0,0,0,0,0,0,0,0,0,0,0,0,0,0,0,0,0,0,0,0,0,0,0,0,0,0,0,0,0,0,0,0,0,0,0,0,0,0,0,0,0,0,0,0,0,0,0,0,0,0,0,0,0,0.3412,0.341,0,0.3263,0.3261,0.3259,0.3134,0.3132,0.3131,0.313,0.2976,0.2973,0.297,0,0,0,0,0,0,0,0,0,0,0,0,0,0.3589,0.3586,0.3412,0.341,0.3408,0.3263,0.3261,0.3259,0.3134,0.3132,0.3131,0.3129,0.2977,0.2973,0.297,0,0,0,0,0,0,0,0,0,0,0,0,0,0.3483,0.3586,0.3412,0.3329,0.332,0.3263,0.3261,0.3258,0.3134,0.3132,0.313,0.3128,0.2978,0.2974,0.2969,0.2984,0,0,0.2956,0.2955,0,0,0,0,0,0,0,0,0.3489,0.3477,0.3343,0.3334,0.3324,0.3215,0.3266,0.3166,0.3135,0.3205,0.313,0.3127,0.3057,0.3046,0.3022,0.2977,0.297,0.2956,0.2953,0.2952,0.295,0,0,0,0,0,0,0,0.3497,0.3483,0.3353,0.3341,0.333,0.3298,0.3281,0.3247,0.3144,0.3198,0.3189,0.3173,0.3051,0.3027,0.3018,0.2968,0.2956,0.2952,0.295,0.2948,0.2926,0.2928,0,0,0,0,0,0,0.3517,0.3489,0.3357,0.3348,0.3403,0.3297,0.3277,0.3252,0.3144,0.3126,0.3175,0.3168,0.3035,0.3023,0.3012,0.3021,0.2952,0.2948,0.2945,0.2924,0.2926,0.2929,0,0,0,0,0,0,0.3521,0.3507,0.3363,0.3416,0.3396,0.3296,0.3268,0.325,0.3225,0.3126,0.3107,0.3169,0.3033,0.3018,0.2992,0.3014,0.2946,0.2942,0.2922,0.2925,0.2928,0.3039,0,0,0,0,0,0,0.3527,0.3509,0.3513,0.3417,0.3393,0.3346,0.327,0.3249,0.3218,0.3208,0.3115,0.3098,0.303,0.2999,0.2988,0.3006,0.2938,0.2919,0.2923,0.2927,0.3033,0.3046,0.3057,0,0,0,0,0,0.3534,0.355,0.3514,0.3499,0.3397,0.3348,0.3334,0.3256,0.3221,0.3224,0.3161,0.3101,0.3014,0.2997,0.2983,0.3002,0.2917,0.2922,0.2926,0.3028,0.3043,0.3056,0,0,0,0,0,0,0.365,0.3536,0.3495,0.3481,0.3425,0.3327,0.3328,0.3275,0.3227,0.3219,0.3124,0.3104,0.3088,0.3042,0.3026,0.301,0.2958,0.296,0.304,0.3054,0.3065,0.3075,0.2935,0,0,0,0,0,0.3675,0.3645,0.3547,0.3544,0.3518,0.3429,0.3404,0.3349,0.3287,0.3263,0.3197,0.314,0.3099,0.3074,0.3031,0.3027,0.3005,0.3033,0.3045,0.3055,0.3057,0.3051,0.3062,0.2943,0.2943,0.2943,0,0,0.3724,0.3658,0.3645,0.3566,0.3516,0.3487,0.3409,0.3382,0.3359,0.3258,0.3229,0.318,0.3109,0.3094,0.3084,0.3055,0.3085,0.306,0.3069,0.3065,0.3056,0.3068,0.3078,0.2946,0.2946,0.2945,0,0,0.3798,0.3746,0.3738,0.369,0.3616,0.3557,0.3556,0.3466,0.3429,0.3399,0.3323,0.3295,0.3227,0.318,0.3147,0.3206,0.3149,0.3195,0.3255,0.325,0.326,0.3267,0.3287,0.3296,0.3198,0.3198,0.3199,0,0.3869,0.3822,0.374,0.3717,0.3684,0.3594,0.3584,0.3542,0.3458,0.3438,0.3407,0.3321,0.3267,0.3239,0.3254,0.3231,0.3225,0.3204,0.3265,0.3272,0.3278,0.3296,0.3304,0.3204,0.3204,0.3203,0.3203,0,0.3911,0.388,0.3882,0.3804,0.3772,0.3756,0.3672,0.365,0.3599,0.3543,0.3514,0.3446,0.3388,0.3378,0.3327,0.3343,0.3328,0.3283,0.3228,0.3297,0.3312,0.3318,0.3213,0.3211,0.3209,0.3207,0,0,0.4052,0.3931,0.3932,0.3896,0.3809,0.3783,0.3764,0.3708,0.369,0.3637,0.3617,0.3563,0.3521,0.3484,0.3428,0.3424,0.3474,0.3379,0.3376,0.3398,0.3487,0.352,0.3529,0.3438,0.3438,0.3439,0.3492,0,0.411,0.407,0.3997,0.398,0.395,0.3865,0.3848,0.3793,0.3742,0.3709,0.3651,0.3614,0.3562,0.3539,0.3532,0.347,0.3491,0.3465,0.3417,0.3417,0.3435,0.3537,0.3572,0.3625,0.3498,0.3499,0.35,0,0.4173,0.4124,0.4105,0.4021,0.4005,0.3992,0.3935,0.3905,0.3841,0.3804,0.3764,0.3703,0.3677,0.363,0.3594,0.3578,0.3555,0.3522,0.3522,0.3513,0.3461,0.3529,0.364,0.3648,0.3509,0.3508,0.3507,0,0.4275,0.4206,0.4185,0.4157,0.4058,0.4051,0.401,0.3944,0.3915,0.3866,0.3846,0.3795,0.3767,0.3729,0.3655,0.3627,0.3627,0.3573,0.3594,0.3596,0.3595,0.3596,0.3703,0.3585,0.3585,0.3585,0.3584,0,0.4347,0.4338,0.4229,0.4216,0.4204,0.4121,0.4111,0.4062,0.4005,0.3981,0.3905,0.3884,0.3789,0.3758,0.37,0.3679,0.3667,0.3635,0.362,0.3641,0.3645,0.3622,0.3616,0.3587,0.3586,0.3586,0.3585,0,0.4458,0.4385,0.4356,0.4267,0.4244,0.4239,0.4162,0.4146,0.4091,0.4062,0.405,0.3963,0.3922,0.3846,0.3783,0.3745,0.3734,0.3709,0.3756,0.3746,0.3771,0.3769,0.3865,0.3873,0.3753,0.3754,0.3755,0,0.4507,0.4498,0.4408,0.4387,0.4349,0.4316,0.4286,0.4206,0.4178,0.4106,0.4099,0.4052,0.401,0.3948,0.3879,0.3831,0.3802,0.3839,0.3794,0.3816,0.3801,0.3801,0.38,0.3849,0.385,0.3852,0.3853,0,0.4602,0.4567,0.4527,0.4477,0.4444,0.44,0.4352,0.4339,0.4247,0.422,0.4178,0.4145,0.4082,0.4036,0.3978,0.3935,0.3879,0.3869,0.387,0.389,0.3917,0.3902,0.3782,0.3866,0.3864,0.3864,0.3863,0.3862,0.4681,0.4669,0.4605,0.4564,0.452,0.4477,0.4458,0.4402,0.4365,0.4307,0.4262,0.4223,0.416,0.4077,0.4038,0.4006,0.3979,0.3983,0.3983,0.3985,0.3993,0.3925,0.3995,0.3995,0.3995,0.3994,0.3994,0,0.477,0.4725,0.4689,0.4625,0.4593,0.4545,0.449,0.4466,0.4433,0.438,0.4341,0.4292,0.4248,0.4177,0.4127,0.4115,0.4088,0.4104,0.4103,0.4094,0.402,0.4022,0.4127,0.4127,0.4127,0.4127,0.4127,0.4127,0.4813,0.479,0.4748,0.4703,0.4658,0.4619,0.4592,0.4552,0.451,0.4459,0.4422,0.4377,0.4317,0.4262,0.4219,0.4199,0.4184,0.4208,0.418,0.4112,0.4099,0.4087,0.4089,0.4206,0.4206,0.4256,0.4257,0.4257]}]]